Tracking 28125 objects as of 3-Oct-2023
HD Live streaming from Space Station
objects crossing your sky now

CZ-4 DEB

Track CZ-4 DEB now!
10-day predictions


NORAD ID: 31131
Int'l Code: 2003-049D
Perigee: 695.9 km
Apogee: 884.2 km
Inclination: 98.9 °
Period: 100.5 minutes
Semi major axis: 7161 km
RCS: 0.0196 m2 (small)
Launch date: October 21, 2003
Source: People's Republic of China (PRC)
Launch site: Taiyaun Space Center, China (TSC)

Note: This is SATELLITE DEBRIS
Your satellite tracking list
Your tracking list is empty




NASA's NSSDC Master Catalog

Two Line Element Set (TLE):
1 31131U 03049D   23274.91932542  .00002852  00000-0  96920-3 0  9994
2 31131  98.8624 263.6636 0131460 109.0732 283.0101 14.32641381857713
Source of the keplerian elements: AFSPC